Find Starlink 4480

NORAD ID: 53416 Int'l Des: 2022-097 Owner: SPXS Country: US Constellation: starlink operational
LEOCIRCULAR

現在のビュー

3D地球を読み込み中...

Starlink 4480について

説明を読み込み中...

次回通過

Passes for default location (London). Set your location on the main map for personalized predictions.

高度履歴

Loading altitude history...

軌道要素

1 53416U 22097AE 26151.14538911 -.00000600 00000-0 -19578-4 0 9998
2 53416 53.1943 103.8998 0001523 64.1698 295.9451 15.08842265211076
Epoch: May 31, 2026 • Age: 18 hours

現在のステータス

高度 543.5 km
速度 7.60 km/s
衛星直下点 43.48°N, 23.59°E
打ち上げ日 Aug 10, 2022
運用期間 3.8 years
タイプ internet

技術仕様

分類 Payload
質量 297.00 kg
乾燥質量 275.00 kg
総質量 297.00 kg
長さ 0.20 m
直径 2.80 m
スパン 9.00 m
形状 Box + pan
製造者 SPXS
バスタイプ Starlink
フェーズステータス In Orbit
所有者/国 SPXS/US

Most Searched